Flag for Austria Weather past 2 weeks in Leonding, Upper Austria, Austria

Now
73 °F

Passing clouds.


Feels Like: 76 °F
Forecast: 57 / 69 °F
Wind: 14 mph from Northwest

Location: Linz / Hoersching-Flughafen

Current Time: Jul 8, 2015 at 4:19:04 AM

Latest Report: Jul 8, 2015 at 3:50 AM


Visibility: N/A

Pressure: 29.83 "Hg

Humidity: 69%

Dew point: 63 °F

Location of LeondingLocation

Historic Weather in Leonding — Graph

°F

Leonding temperature yesterday

Maximum temperature yesterday: 93 °F (at 2:50 PM)
Minimum temperature yesterday: 66 °F (at 4:50 AM)
Average temperature yesterday: 81 °F

Past Weeks' High & Low Weather Summary

 TemperatureHumidityPressure
High93 °F (Jul 5, 4:20 PM)100% (Jun 23, 4:50 AM)30.30 "Hg (Jun 23, 4:50 AM)
Low46 °F (Jun 25, 4:50 AM)24% (Jul 5, 4:20 PM)29.71 "Hg (Jun 23, 2:20 AM)
Average70 °F66%30.12 "Hg
* Reported Jun 23 2:20 AM — Jul 8 2:50 AM, Leonding, Weather by CustomWeather, © 2015

Note: Actual official high and low records may vary slightly from our data, if they occured in-between our weather recording intervals... More about our weather records

Advertising

Leonding weather history for previous 24 hours

 ConditionsComfort  
Time TempWeatherWind HumidityBarometerVisibility
2:50 AM
Wed, Jul 8
75 °FThundershowers. Overcast.3 mph61%29.80 "HgN/A
2:20 AM75 °FThunderstorms. Overcast.5 mph61%29.80 "HgN/A
1:50 AM77 °FLight rain. Overcast.12 mph51%29.86 "HgN/A
1:20 AM81 °FThundershowers. Overcast.17 mph48%29.83 "HgN/A
12:50 AM77 °FWarm.8 mph74%29.80 "HgN/A
12:20 AM79 °FPassing clouds.5 mph70%29.74 "HgN/A
11:50 PM
Tue, Jul 7
79 °FWarm.5 mph70%29.74 "HgN/A
11:20 PM79 °FClear.5 mph70%29.74 "Hg10 mi
10:50 PM81 °FClear.5 mph66%29.77 "Hg10 mi
10:20 PM81 °FClear.6 mph66%29.77 "Hg10 mi
9:50 PM82 °FSunny.7 mph62%29.77 "Hg10 mi
9:20 PM82 °FSunny.6 mph58%29.77 "Hg10 mi
8:50 PM86 °FSunny.6 mph52%29.80 "Hg10 mi
8:20 PM88 °FScattered clouds.7 mph46%29.80 "HgN/A
7:50 PM90 °FScattered clouds.3 mph43%29.80 "HgN/A
7:20 PM90 °FScattered clouds.7 mph41%29.83 "HgN/A
6:50 PM91 °FSunny.8 mph38%29.83 "Hg10 mi
6:20 PM93 °FSunny.7 mph36%29.83 "Hg10 mi
5:50 PM93 °FSunny.5 mph36%29.83 "Hg10 mi
5:20 PM93 °FSunny.5 mph36%29.86 "Hg10 mi
4:50 PM93 °FSunny.6 mph36%29.86 "Hg10 mi
4:20 PM93 °FSunny.5 mph39%29.89 "Hg10 mi
3:50 PM93 °FSunny.5 mph34%29.89 "Hg10 mi
3:20 PM93 °FSunny.5 mph32%29.92 "Hg10 mi
2:50 PM93 °FPassing clouds.2 mph32%29.92 "HgN/A
2:20 PM91 °FSunny.3 mph36%29.92 "Hg10 mi
1:50 PM90 °FSunny.5 mph38%29.95 "Hg10 mi
1:20 PM90 °FSunny.7 mph41%29.95 "Hg10 mi
12:50 PM88 °FSunny.8 mph46%29.95 "Hg10 mi
12:20 PM86 °FSunny.9 mph52%29.98 "Hg10 mi
11:50 AM84 °FPassing clouds.10 mph55%29.98 "HgN/A
11:20 AM84 °FSunny.8 mph55%29.98 "Hg10 mi
10:50 AM82 °FSunny.8 mph58%30.01 "Hg10 mi
10:20 AM81 °FSunny.9 mph62%30.01 "Hg10 mi
9:50 AM79 °FSunny.8 mph61%30.01 "Hg10 mi
9:20 AM77 °FSunny.8 mph65%30.04 "Hg10 mi
8:50 AM75 °FSunny.8 mph69%30.04 "Hg10 mi
8:20 AM75 °FSunny.7 mph69%30.04 "Hg10 mi
7:50 AM73 °FSunny.7 mph74%30.04 "Hg10 mi
7:20 AM72 °FSunny.3 mph78%30.07 "Hg10 mi
6:50 AM70 °FPassing clouds.2 mph78%30.07 "HgN/A
6:20 AM68 °FPassing clouds.2 mph88%30.07 "HgN/A
5:50 AM66 °FClear.2 mph94%30.07 "Hg10 mi
5:20 AM66 °FClear.2 mph94%30.07 "Hg10 mi
4:50 AM66 °FClear.1 mph94%30.07 "Hg10 mi
4:20 AM68 °FClear.2 mph88%30.07 "Hg10 mi
Weather by CustomWeather, © 2015

See weather overviewHow to use our weather pages